Location: Miles
(41.4492°N, 81.6087°W)
Time: 18:47:54
(UTC+00:00)

Tiros 1 despin weight - Pass Details

Date: 22 September 2024
Orbit: 573 x 615 km, 48.2° (Epoch: 04 October)

Event Time Altitude Azimuth Distance (km) Brightness Sun altitude
Rises 06:12:14 0° 243° (WSW) 2,833 - -46.7°
Reaches altitude 10° 06:14:30 10° 244° (WSW) 1,941 - -46.6°
Maximum altitude 06:18:58 82° 331° (NNW) 618 - -46.3°
Drops below altitude 10° 06:23:31 10° 61° (ENE) 1,972 - -46.0°
Sets 06:25:51 0° 62° (ENE) 2,883 - -45.8°
